DW8935 Weather Reports


time (UTC)temp
F
wind
direction
speed
knots
gust
knots
rain 1hr
in
rain 24hr
in
rain mn
in
humidity
%
barometer
mb
20230208175045 56 18 0.0 0.0 0.00 0.00 0.00 90 1010.3
20230208174549 56 18 0.0 0.0 0.00 0.00 0.00 90 1010.3
20230208173542 56 18 0.0 0.0 0.00 0.00 0.00 90 1010.4
20230208173041 56 78 0.0 0.0 0.00 0.00 0.00 90 1010.4
20230208172541 56 82 0.0 0.0 0.00 0.00 0.00 89 1010.3
20230208172040 56 82 0.0 0.0 0.00 0.00 0.00 89 1010.3
20230208171540 56 82 0.0 0.0 0.00 0.00 0.00 89 1010.2
20230208171039 56 82 0.0 0.0 0.00 0.00 0.00 89 1010.3
20230208170539 56 82 0.0 0.0 0.00 0.00 0.00 88 1010.3
20230208170038 57 82 0.0 0.0 0.00 0.00 0.00 88 1010.2
20230208165539 57 82 0.0 0.0 0.00 0.00 0.00 88 1010.2
20230208165036 57 82 0.0 0.0 0.00 0.00 0.00 88 1010.2
20230208164537 57 82 0.0 0.0 0.00 0.00 0.00 88 1010.2
20230208163536 58 82 0.0 0.0 0.00 0.00 0.00 87 1010.2
20230208163035 58 82 0.0 0.0 0.00 0.00 0.00 87 1010.2
20230208162534 58 82 0.0 0.0 0.00 0.00 0.00 87 1010.3
20230208162035 58 82 0.0 0.0 0.00 0.00 0.00 87 1010.4
20230208161532 59 82 0.0 0.0 0.00 0.00 0.00 87 1010.4
20230208161031 59 82 0.0 0.0 0.00 0.00 0.00 87 1010.5
20230208160534 59 82 0.0 0.0 0.00 0.00 0.00 87 1010.5
20230208160029 59 82 0.0 0.0 0.00 0.00 0.00 87 1010.6
20230208155527 60 82 0.0 0.0 0.00 0.00 0.00 87 1010.6
20230208155028 60 82 0.0 0.0 0.00 0.00 0.00 87 1010.6
20230208154527 60 82 0.0 0.0 0.00 0.00 0.00 87 1010.6
20230208153526 60 82 0.0 2.6 0.00 0.00 0.00 87 1010.7
20230208153026 60 82 0.0 2.6 0.00 0.00 0.00 86 1010.8
20230208152525 61 70 0.9 3.5 0.00 0.00 0.00 86 1010.8
20230208152024 61 69 0.9 3.5 0.00 0.00 0.00 86 1010.8
20230208151523 61 84 0.0 3.5 0.00 0.00 0.00 85 1010.8
20230208151022 61 69 0.9 3.5 0.00 0.00 0.00 85 1010.8
20230208150521 61 95 0.0 3.5 0.00 0.00 0.00 86 1010.9
20230208150032 61 111 0.9 5.2 0.00 0.00 0.00 85 1011.0
20230208145520 62 94 1.7 5.2 0.00 0.00 0.00 85 1011.1
20230208145019 62 109 0.9 4.3 0.00 0.00 0.00 85 1011.3
20230208144519 62 101 0.0 4.3 0.00 0.00 0.00 85 1011.3
20230208143522 62 104 0.0 5.2 0.00 0.00 0.00 85 1011.4
20230208143018 62 98 0.9 7.0 0.00 0.00 0.00 85 1011.5
20230208142518 62 84 1.7 7.0 0.00 0.00 0.00 84 1011.5
20230208142018 62 101 0.0 7.8 0.00 0.00 0.00 84 1011.5
20230208141528 62 92 3.5 7.8 0.00 0.00 0.00 84 1011.7
20230208141016 62 91 1.7 7.0 0.00 0.00 0.00 84 1011.7
20230208140517 62 106 1.7 6.1 0.00 0.00 0.00 84 1011.8
20230208140019 62 102 1.7 6.1 0.00 0.00 0.00 84 1011.8
20230208135515 62 104 1.7 7.8 0.00 0.00 0.00 84 1011.9
20230208135014 62 109 3.5 7.8 0.00 0.00 0.00 84 1012.0
20230208134513 62 95 1.7 8.7 0.00 0.00 0.00 83 1012.1
20230208133512 62 98 2.6 7.8 0.00 0.00 0.00 83 1012.1
20230208133012 62 93 1.7 7.0 0.00 0.00 0.00 83 1012.0
20230208132510 62 123 0.9 7.0 0.00 0.00 0.00 83 1012.1
20230208132010 62 104 1.7 7.0 0.00 0.00 0.00 82 1012.1
20230208131510 62 118 1.7 8.7 0.00 0.00 0.00 82 1012.1
20230208131009 62 97 2.6 7.8 0.00 0.00 0.00 81 1012.2
20230208130508 62 88 1.7 7.8 0.00 0.00 0.00 81 1012.1
20230208130008 62 81 2.6 6.1 0.00 0.00 0.00 81 1012.1
20230208125508 63 108 3.5 7.8 0.00 0.00 0.00 80 1012.1
20230208125008 63 91 2.6 7.8 0.00 0.00 0.00 80 1012.1
20230208124508 63 107 4.3 7.8 0.00 0.00 0.00 79 1012.3
20230208123506 63 103 0.9 9.6 0.00 0.00 0.00 78 1012.3
20230208123007 63 111 3.5 9.6 0.00 0.00 0.00 78 1012.3
20230208122506 63 118 1.7 7.0 0.00 0.00 0.00 77 1012.4
20230208122005 63 116 0.9 8.7 0.00 0.00 0.00 77 1012.4
20230208121505 63 97 3.5 9.6 0.00 0.00 0.00 77 1012.4
20230208121008 63 84 3.5 9.6 0.00 0.00 0.00 76 1012.2
20230208120505 63 96 3.5 7.8 0.00 0.00 0.00 76 1012.2
20230208120008 63 93 1.7 7.8 0.00 0.00 0.00 75 1012.3
20230208115505 63 92 2.6 7.0 0.00 0.00 0.00 75 1012.3
20230208115005 63 141 2.6 7.0 0.00 0.00 0.00 75 1012.5
20230208114513 63 92 2.6 7.0 0.00 0.00 0.00 75 1012.6
20230208113507 63 106 1.7 6.1 0.00 0.00 0.00 74 1012.8
20230208113008 63 76 1.7 7.0 0.00 0.00 0.00 74 1012.8
20230208112508 63 102 2.6 7.8 0.00 0.00 0.00 73 1012.8
20230208112007 64 124 2.6 7.8 0.00 0.00 0.00 73 1012.7
20230208111508 64 83 2.6 8.7 0.00 0.00 0.00 73 1012.8
20230208111007 64 107 4.3 8.7 0.00 0.00 0.00 73 1012.8
20230208110507 64 95 3.5 8.7 0.00 0.00 0.00 72 1012.8
20230208110007 64 131 3.5 8.7 0.00 0.00 0.00 72 1012.9
20230208105510 64 44 3.5 8.7 0.00 0.00 0.00 71 1012.9
20230208105007 64 81 3.5 9.6 0.00 0.00 0.00 71 1012.9
20230208104510 65 115 1.7 9.6 0.00 0.00 0.00 71 1013.0
20230208103506 65 101 2.6 8.7 0.00 0.00 0.00 70 1012.9
20230208103006 65 103 2.6 10.4 0.00 0.00 0.00 69 1013.0
20230208102506 65 77 3.5 9.6 0.00 0.00 0.00 69 1012.9
20230208102006 66 98 3.5 10.4 0.00 0.00 0.00 69 1012.9
20230208101507 66 94 4.3 10.4 0.00 0.00 0.00 68 1012.9
20230208101006 66 88 4.3 11.3 0.00 0.00 0.00 67 1013.1
20230208100505 67 93 5.2 11.3 0.00 0.00 0.00 66 1013.1
20230208100006 67 112 3.5 11.3 0.00 0.00 0.00 66 1013.0
20230208095508 67 91 6.1 9.6 0.00 0.00 0.00 65 1012.9
20230208095006 67 117 5.2 11.3 0.00 0.00 0.00 64 1012.8
20230208094505 68 99 6.1 11.3 0.00 0.00 0.00 64 1012.8
20230208093506 68 80 5.2 11.3 0.00 0.00 0.00 63 1012.8
20230208093006 69 113 3.5 9.6 0.00 0.00 0.00 62 1012.7
20230208092505 69 80 6.1 9.6 0.00 0.00 0.00 61 1012.7
20230208092005 70 127 4.3 12.2 0.00 0.00 0.00 61 1012.7
20230208091506 70 97 4.3 13.0 0.00 0.00 0.00 60 1012.6
20230208091007 71 86 3.5 11.3 0.00 0.00 0.00 59 1012.6
20230208090505 71 77 5.2 12.2 0.00 0.00 0.00 58 1012.5
20230208090006 71 106 6.1 12.2 0.00 0.00 0.00 58 1012.5
20230208085508 72 83 5.2 10.4 0.00 0.00 0.00 58 1012.4
20230208085007 72 83 6.1 13.0 0.00 0.00 0.00 57 1012.4
20230208084504 73 80 6.1 11.3 0.00 0.00 0.00 57 1012.4
20230208083504 74 122 5.2 13.0 0.00 0.00 0.00 55 1012.3
20230208083004 75 73 4.3 13.0 0.00 0.00 0.00 54 1012.3
20230208082504 76 88 6.1 11.3 0.00 0.00 0.00 53 1012.2
20230208082003 76 94 6.1 14.8 0.00 0.00 0.00 52 1012.2
20230208081504 77 70 6.1 12.2 0.00 0.00 0.00 50 1012.1
20230208081003 78 111 5.2 13.0 0.00 0.00 0.00 50 1012.2
20230208080503 78 98 6.1 13.0 0.00 0.00 0.00 50 1012.1
20230208080004 79 69 5.2 12.2 0.00 0.00 0.00 49 1012.1
20230208075504 79 103 4.3 12.2 0.00 0.00 0.00 49 1012.0
20230208075002 79 93 3.5 11.3 0.00 0.00 0.00 50 1012.0
20230208074501 78 170 0.0 7.0 0.00 0.00 0.00 57 1011.9
20230208073559 78 154 1.7 7.8 0.00 0.00 0.00 56 1012.1
20230208073059 78 148 2.6 7.8 0.00 0.00 0.00 56 1012.2
20230208072559 78 189 2.6 8.7 0.00 0.00 0.00 56 1012.3
20230208072056 78 181 2.6 8.7 0.00 0.00 0.00 56 1012.4
20230208071556 78 113 2.6 8.7 0.00 0.00 0.00 56 1012.3
20230208071054 78 191 3.5 8.7 0.00 0.00 0.00 57 1012.3
20230208070554 78 149 2.6 7.8 0.00 0.00 0.00 57 1012.3
20230208070054 78 170 3.5 8.7 0.00 0.00 0.00 58 1012.3
20230208065552 77 138 1.7 9.6 0.00 0.00 0.00 58 1012.4
20230208065052 77 161 3.5 10.4 0.00 0.00 0.00 59 1012.4
20230208064555 77 148 2.6 11.3 0.00 0.00 0.00 60 1012.4
20230208063552 76 141 1.7 10.4 0.00 0.00 0.00 60 1012.5
20230208063051 76 158 2.6 10.4 0.00 0.00 0.00 60 1012.6
20230208062556 76 171 2.6 8.7 0.00 0.00 0.00 61 1012.6
20230208062054 75 195 5.2 9.6 0.00 0.00 0.00 61 1012.7
20230208061551 75 150 3.5 10.4 0.00 0.00 0.00 62 1012.7
20230208061049 75 154 3.5 10.4 0.00 0.00 0.00 62 1012.8
20230208060548 74 168 3.5 10.4 0.00 0.00 0.00 63 1012.9
20230208060126 74 165 3.5 11.3 0.00 0.00 0.00 63 1012.9
20230208055549 73 199 6.1 11.3 0.00 0.00 0.00 63 1012.9
20230208055048 73 117 4.3 8.7 0.00 0.00 0.00 62 1013.0
20230208054547 73 153 3.5 9.6 0.00 0.00 0.00 62 1013.0
20230208053545 73 161 5.2 13.0 0.00 0.00 0.00 62 1013.1
20230208053045 73 175 7.0 13.0 0.00 0.00 0.00 62 1013.2
20230208052543 73 199 5.2 13.0 0.00 0.00 0.00 63 1013.4
20230208052042 73 187 6.1 12.2 0.00 0.00 0.00 63 1013.4
20230208051543 72 180 3.5 12.2 0.00 0.00 0.00 64 1013.4
20230208051041 72 196 4.3 10.4 0.00 0.00 0.00 63 1013.5
20230208050543 72 156 3.5 10.4 0.00 0.00 0.00 63 1013.5
20230208050042 72 198 6.1 13.0 0.00 0.00 0.00 63 1013.6
20230208045540 72 131 6.1 13.0 0.00 0.00 0.00 62 1013.5
20230208045040 72 155 5.2 13.0 0.00 0.00 0.00 62 1013.5
20230208044542 72 190 6.1 13.0 0.00 0.00 0.00 62 1013.6
20230208043541 73 159 2.6 11.3 0.00 0.00 0.00 62 1013.6
20230208043048 73 177 2.6 8.7 0.00 0.00 0.00 61 1013.7
20230208042542 73 192 2.6 8.7 0.00 0.00 0.00 61 1013.6
20230208042040 73 184 2.6 9.6 0.00 0.00 0.00 60 1013.6
20230208041539 73 198 2.6 8.7 0.00 0.00 0.00 60 1013.9
20230208041038 73 169 4.3 9.6 0.00 0.00 0.00 60 1013.9
20230208040538 74 169 5.2 9.6 0.00 0.00 0.00 58 1014.0
20230208040039 74 209 3.5 13.0 0.00 0.00 0.00 58 1014.0
20230208035539 75 217 5.2 13.0 0.00 0.00 0.00 58 1014.1
20230208035037 75 181 3.5 9.6 0.00 0.00 0.00 57 1014.1
20230208034549 75 197 2.6 7.8 0.00 0.00 0.00 55 1014.1
20230208033534 76 161 1.7 8.7 0.00 0.00 0.00 55 1014.1
20230208033040 76 175 3.5 8.7 0.00 0.00 0.00 55 1014.2
20230208032534 76 180 2.6 11.3 0.00 0.00 0.00 54 1014.2
20230208032032 76 151 0.0 5.2 0.00 0.00 0.00 54 1014.3
20230208031533 76 179 0.9 5.2 0.00 0.00 0.00 54 1014.3
20230208031032 76 164 0.9 8.7 0.00 0.00 0.00 54 1014.4
20230208030532 77 130 1.7 8.7 0.00 0.00 0.00 54 1014.4
20230208030031 77 192 0.9 5.2 0.00 0.00 0.00 52 1014.5
20230208025529 76 36 0.9 6.1 0.00 0.00 0.00 52 1014.6
20230208025030 76 93 0.9 6.1 0.00 0.00 0.00 54 1014.6
20230208024529 76 153 1.7 7.0 0.00 0.00 0.00 54 1014.7
20230208023528 76 120 1.7 5.2 0.00 0.00 0.00 53 1015.0
20230208023034 76 147 0.0 7.8 0.00 0.00 0.00 53 1015.0
20230208022527 76 59 2.6 7.8 0.00 0.00 0.00 54 1015.2
20230208022026 76 148 1.7 6.1 0.00 0.00 0.00 53 1015.1
20230208021528 76 142 0.9 7.0 0.00 0.00 0.00 54 1015.2
20230208021025 77 126 0.9 7.0 0.00 0.00 0.00 53 1015.2
20230208020524 77 149 2.6 6.1 0.00 0.00 0.00 54 1015.2
20230208020023 76 103 0.9 7.8 0.00 0.00 0.00 55 1015.3
20230208015522 76 101 0.0 7.8 0.00 0.00 0.00 55 1015.4
20230208015022 76 159 2.6 11.3 0.00 0.00 0.00 54 1015.5
20230208014521 75 119 1.7 11.3 0.00 0.00 0.00 54 1015.4
20230208013523 75 118 3.5 7.0 0.00 0.00 0.00 57 1015.7
20230208013023 75 93 0.0 8.7 0.00 0.00 0.00 56 1015.8
20230208012520 74 96 3.5 8.7 0.00 0.00 0.00 56 1016.0
20230208012020 74 150 0.9 6.1 0.00 0.00 0.00 57 1016.1
20230208011519 74 152 0.9 7.0 0.00 0.00 0.00 57 1016.1
20230208011018 73 146 1.7 6.1 0.00 0.00 0.00 58 1016.2
20230208010518 73 111 0.9 7.0 0.00 0.00 0.00 58 1016.2
20230208010035 74 157 2.6 7.0 0.00 0.00 0.00 57 1016.3
20230208005520 73 82 1.7 6.1 0.00 0.00 0.00 58 1016.3
20230208005016 73 80 0.0 7.0 0.00 0.00 0.00 57 1016.3
20230208004515 73 134 2.6 7.8 0.00 0.00 0.00 57 1016.4
20230208003511 72 84 0.9 7.0 0.00 0.00 0.00 59 1016.6
20230208003009 72 136 0.9 7.0 0.00 0.00 0.00 57 1016.6
20230208002509 72 167 1.7 7.0 0.00 0.00 0.00 58 1016.6
20230208002007 71 105 0.0 7.0 0.00 0.00 0.00 59 1016.7
20230208001515 71 101 1.7 7.8 0.00 0.00 0.00 59 1016.8
20230208001009 71 83 1.7 7.0 0.00 0.00 0.00 60 1016.7
20230208000505 70 80 1.7 8.7 0.00 0.00 0.00 61 1016.7
20230208000005 70 79 1.7 8.7 0.00 0.00 0.00 62 1016.7
20230207235502 69 59 2.6 8.7 0.00 0.00 0.00 62 1016.8
20230207235104 69 88 3.5 7.8 0.00 0.00 0.00 64 1016.8
20230207234600 69 116 2.6 6.1 0.00 0.00 0.00 65 1016.8
20230207234200 68 132 0.0 10.4 0.00 0.00 0.00 64 1016.9
20230207233503 68 105 0.9 10.4 0.00 0.00 0.00 64 1016.9
20230207233112 68 80 5.2 10.4 0.00 0.00 0.00 66 1016.9
20230207232558 68 71 2.6 7.0 0.00 0.00 0.00 66 1016.9
20230207232100 67 78 0.9 7.8 0.00 0.00 0.00 67 1017.0
20230207231557 67 46 1.7 7.8 0.00 0.00 0.00 68 1017.1
20230207231059 66 113 0.9 7.0 0.00 0.00 0.00 68 1017.0
20230207230554 66 45 1.7 7.0 0.00 0.00 0.00 70 1017.1
20230207230053 65 120 1.7 6.1 0.00 0.00 0.00 70 1017.1
20230207225557 65 162 0.9 6.1 0.00 0.00 0.00 70 1017.1
20230207225052 65 118 0.9 5.2 0.00 0.00 0.00 70 1017.1
20230207224551 65 102 1.7 7.8 0.00 0.00 0.00 71 1017.1
20230207224151 64 94 0.0 7.0 0.00 0.00 0.00 71 1017.0
20230207223550 64 128 0.0 7.0 0.00 0.00 0.00 72 1017.0
20230207223049 64 138 1.7 7.0 0.00 0.00 0.00 71 1017.1
20230207222549 64 144 1.7 6.1 0.00 0.00 0.00 72 1017.1
20230207222047 64 103 0.9 5.2 0.00 0.00 0.00 72 1017.1
20230207221546 64 103 2.6 7.0 0.00 0.00 0.00 72 1017.1
20230207221046 63 73 1.7 7.0 0.00 0.00 0.00 73 1017.1
20230207220544 63 70 2.6 7.8 0.00 0.00 0.00 74 1017.1
20230207220042 63 117 1.7 4.3 0.00 0.00 0.00 75 1017.1
20230207215542 62 132 0.9 4.3 0.00 0.00 0.00 77 1017.1
20230207215041 62 74 0.0 5.2 0.00 0.00 0.00 77 1017.1
20230207214538 61 89 0.9 5.2 0.00 0.00 0.00 78 1017.2
20230207214138 60 126 0.0 3.5 0.00 0.00 0.00 79 1017.2
20230207213539 60 128 0.0 4.3 0.00 0.00 0.00 79 1017.2
20230207213050 60 87 0.0 0.0 0.00 0.00 0.00 80 1017.2
20230207212538 60 87 0.0 2.6 0.00 0.00 0.00 80 1017.2
20230207212037 59 87 0.0 2.6 0.00 0.00 0.00 81 1017.2
20230207211537 59 88 0.0 2.6 0.00 0.00 0.00 81 1017.2
20230207211037 59 88 0.0 1.7 0.00 0.00 0.00 81 1017.2
20230207210536 59 88 0.0 1.7 0.00 0.00 0.00 81 1017.3
20230207210048 59 88 0.0 0.0 0.00 0.00 0.00 81 1017.2
20230207205536 59 88 0.0 0.9 0.00 0.00 0.00 81 1017.2
20230207205035 58 88 0.0 1.7 0.00 0.00 0.00 82 1017.2
20230207204535 58 88 0.0 1.7 0.00 0.00 0.00 82 1017.2
20230207204136 58 88 0.0 1.7 0.00 0.00 0.00 82 1017.0
20230207203533 58 88 0.0 1.7 0.00 0.00 0.00 82 1017.0
20230207203031 58 88 0.0 1.7 0.00 0.00 0.00 82 1017.0
20230207202533 58 88 0.0 1.7 0.00 0.00 0.00 82 1016.9
20230207202032 58 88 0.0 1.7 0.00 0.00 0.00 82 1016.9
20230207201533 58 86 0.0 1.7 0.00 0.00 0.00 82 1016.8
20230207201031 58 86 0.0 0.0 0.00 0.00 0.00 83 1016.8
20230207200534 57 84 0.0 0.0 0.00 0.00 0.00 82 1016.8
20230207200031 57 84 0.0 0.0 0.00 0.00 0.00 83 1016.8
20230207195531 57 84 0.0 0.0 0.00 0.00 0.00 83 1016.8
20230207195031 57 84 0.0 0.0 0.00 0.00 0.00 83 1016.7
20230207194531 57 84 0.0 0.0 0.00 0.00 0.00 83 1016.8
20230207194129 57 84 0.0 0.0 0.00 0.00 0.00 83 1016.7
20230207193533 57 84 0.0 0.0 0.00 0.00 0.00 83 1016.7
20230207193035 57 84 0.0 0.0 0.00 0.00 0.00 83 1016.6
20230207192534 57 84 0.0 0.0 0.00 0.00 0.00 83 1016.6
20230207192033 57 84 0.0 0.0 0.00 0.00 0.00 83 1016.6
20230207191533 57 84 0.0 0.0 0.00 0.00 0.00 83 1016.6
20230207191033 57 84 0.0 0.0 0.00 0.00 0.00 84 1016.6
20230207190534 57 84 0.0 0.0 0.00 0.00 0.00 84 1016.6
20230207190033 57 84 0.0 0.0 0.00 0.00 0.00 84 1016.6
20230207185532 57 84 0.0 0.0 0.00 0.00 0.00 84 1016.5
20230207185032 57 84 0.0 0.0 0.00 0.00 0.00 85 1016.5
20230207184538 57 84 0.0 0.0 0.00 0.00 0.00 85 1016.5
20230207184133 57 84 0.0 0.0 0.00 0.00 0.00 85 1016.5
20230207183531 57 84 0.0 0.0 0.00 0.00 0.00 85 1016.5
20230207183040 57 84 0.0 0.0 0.00 0.00 0.00 85 1016.5
20230207182528 57 84 0.0 0.0 0.00 0.00 0.00 86 1016.5
20230207182027 56 84 0.0 0.0 0.00 0.00 0.00 86 1016.5
20230207181527 56 84 0.0 0.0 0.00 0.00 0.00 86 1016.5
20230207181027 56 84 0.0 0.0 0.00 0.00 0.00 86 1016.5
20230207180529 56 84 0.0 0.0 0.00 0.00 0.00 86 1016.6
20230207180027 56 84 0.0 0.0 0.00 0.00 0.00 86 1016.6
20230207175525 56 84 0.0 0.0 0.00 0.00 0.00 86 1016.6